Fort Myers, FL

11:17 AM EDT on August 24, 2016 (GMT -0400)
Page

Weather History for KFMY - March, 2012

Change the Weather History Date:

Sunday, March 25, 2012

  Actual Average Record
Temperature  
Mean Temperature 75 °F 71 °F  
Max Temperature 82 °F 81 °F 92 °F (1949)
Min Temperature 68 °F 61 °F 42 °F (1968)
Degree Days  
Heating Degree Days 0 0  
Month to date heating degree days 3 21  
Since 1 July heating degree days 129 281  
Cooling Degree Days 10 6  
Month to date cooling degree days 240 136  
Year to date cooling degree days 542 321  
Growing Degree Days 26 (Base 50)    
Moisture  
Dew Point 65 °F    
Average Humidity 72    
Maximum Humidity 87    
Minimum Humidity 49    
Precipitation  
Precipitation 0.24 in 0.09 in 5.60 in (1970)
Month to date precipitation 0.52 2.36  
Year to date precipitation 2.37 6.45  
Sea Level Pressure  
Sea Level Pressure 29.92 in    
Wind  
Wind Speed 10 mph (WSW)    
Max Wind Speed 24 mph    
Max Gust Speed 32 mph    
Visibility 9 miles    
Events Rain , Thunderstorm    
T = Trace of Precipitation, MM = Missing Value Source: NWS Daily Summary

Daily Weather History Graph

Daily Weather History Graph

Search for Another Location

Airport or City:

Trip Planner

Search our weather history database for the weather conditions in past years. The results will help you decide how hot, cold, wet, or windy it might be!

Date:

Astronomy

Mar. 25, 2012 Rise Set
Actual Time 7:25 AM EDT 7:41 PM EDT
Civil Twilight 7:02 AM EDT 8:04 PM EDT
Nautical Twilight 6:35 AM EDT 8:31 PM EDT
Astronomical Twilight 6:07 AM EDT 8:58 PM EDT
Moon 8:57 AM EDT (3/25) 10:32 PM EDT (3/25)
Length of Visible Light 13h 02m
Length of Day
12h 16m
Waxing Crescent, 8% of the Moon is Illuminated
Mar 25
Waxing Crescent
Mar 30
First Quarter
Apr 6
Full
Apr 13
Last Quarter
Apr 21
New

Hourly Weather History & Observations

Time (EDT) Temp. Heat Index Dew Point Humidity Pressure Visibility Wind Dir Wind Speed Gust Speed Precip Events Conditions
12:53 AM 72.0 °F - 66.0 °F 81% 29.97 in - SW 3.5 mph - N/A   Clear
1:53 AM 73.0 °F - 66.0 °F 79% 29.96 in - SW 4.6 mph - N/A   Partly Cloudy
2:53 AM 73.0 °F - 66.0 °F 79% 29.95 in - SW 4.6 mph - N/A   Clear
3:53 AM 73.9 °F - 66.9 °F 79% 29.94 in - SW 4.6 mph - N/A   Partly Cloudy
4:53 AM 73.0 °F - 66.0 °F 79% 29.93 in - SW 3.5 mph - N/A   Mostly Cloudy
5:05 AM 73.4 °F - 66.2 °F 78% 29.92 in - SW 5.8 mph - N/A   Scattered Clouds
5:53 AM 73.0 °F - 66.0 °F 79% 29.92 in - SSW 3.5 mph - N/A   Partly Cloudy
6:53 AM 73.0 °F - 66.9 °F 81% 29.94 in 6.0 mi SW 5.8 mph - 0.00 in Rain Light Rain
7:43 AM 71.6 °F - 69.8 °F 94% 29.95 in - SW 9.2 mph - 0.12 in Rain , Thunderstorm Light Thunderstorms and Rain
7:53 AM 72.0 °F - 69.1 °F 91% 29.94 in 6.0 mi South 6.9 mph - 0.15 in Rain , Thunderstorm Rain
8:30 AM 71.6 °F - 66.2 °F 83% 29.93 in - SSW 9.2 mph - 0.08 in   Scattered Clouds
8:53 AM 73.0 °F - 69.1 °F 87% 29.93 in 10.0 mi SSW 13.8 mph 19.6 mph 0.08 in   Scattered Clouds
9:53 AM 73.9 °F - 70.0 °F 87% 29.92 in 10.0 mi SW 10.4 mph - 0.01 in   Clear
10:53 AM 77.0 °F - 69.1 °F 76% 29.93 in 10.0 mi WSW 12.7 mph - N/A   Partly Cloudy
11:53 AM 80.1 °F 82.1 °F 66.0 °F 62% 29.94 in - WSW 18.4 mph 23.0 mph N/A   Mostly Cloudy
12:53 PM 78.1 °F - 64.0 °F 62% 29.93 in - WSW 20.7 mph - N/A   Mostly Cloudy
1:53 PM 82.0 °F 83.8 °F 64.9 °F 56% 29.91 in - West 18.4 mph 26.5 mph N/A   Clear
2:53 PM 80.1 °F 81.9 °F 64.9 °F 60% 29.89 in - West 19.6 mph 27.6 mph N/A   Partly Cloudy
3:41 PM 80.6 °F 82.7 °F 66.2 °F 61% 29.87 in 10.0 mi West 17.3 mph 25.3 mph N/A   Mostly Cloudy
3:48 PM 80.6 °F 82.7 °F 66.2 °F 61% 29.86 in 10.0 mi West 17.3 mph 25.3 mph N/A   Scattered Clouds
3:53 PM 80.1 °F 82.1 °F 66.0 °F 62% 29.87 in 10.0 mi WNW 13.8 mph 25.3 mph N/A   Scattered Clouds
4:53 PM 80.1 °F 81.7 °F 64.0 °F 58% 29.87 in 10.0 mi WNW 15.0 mph 23.0 mph N/A   Scattered Clouds
5:53 PM 80.1 °F 80.7 °F 59.0 °F 48% 29.86 in 10.0 mi WNW 17.3 mph 21.9 mph N/A   Clear
6:53 PM 77.0 °F - 62.1 °F 60% 29.86 in - WNW 15.0 mph - N/A   Clear
7:53 PM 73.9 °F - 60.1 °F 62% 29.87 in 10.0 mi WNW 10.4 mph - N/A   Clear
8:53 PM 72.0 °F - 61.0 °F 68% 29.89 in - WNW 8.1 mph - N/A   Clear
9:53 PM 71.1 °F - 61.0 °F 70% 29.92 in - NW 5.8 mph - N/A   Clear
10:53 PM 70.0 °F - 59.0 °F 68% 29.94 in - NW 6.9 mph - N/A   Clear
11:53 PM 69.1 °F - 57.0 °F 65% 29.95 in - NNW 6.9 mph - N/A   Clear